RH
81 79 80 82 84 87 90 92 95 95 94 93 92 91 90 90 88 55 53 45 47 74 62 28 25 23 23 25 20 21 24 25 20 20 18 17 28 47 45 64 71 62 71 85 90
74 75 75 77 82 84 88 91 92 94 95 94 93 92 92 91 77 55 42 68 68 70 22 20 22 19 22 21 21 22 27 20 14 19 19 17 20 51 56 52 57 63 69 88 91
72 73 75 76 81 83 86 89 92 92 94 95 94 93 93 89 66 29 69 73 70 62 24 19 20 14 18 17 15 17 20 15 14 18 17 20 53 55 70 74 64 72 87 88 92
76 74 73 73 78 83 86 88 89 91 92 94 94 93 92 81 37 35 70 70 68 31 23 20 19 17 21 18 13 19 14 13 14 20 19 48 54 68 73 87 79 91 88 89 94
65 68 72 72 76 82 85 86 85 88 91 92 93 93 84 57 42 45 72 67 39 25 24 20 21 19 20 17 19 18 15 15 14 20 33 44 57 68 63 76 78 79 87 92 92
74 65 66 72 74 78 84 85 86 86 89 91 93 94 85 72 26 37 46 44 26 24 22 22 20 17 20 21 22 18 16 15 14 24 35 45 60 50 64 68 73 72 85 88 91
81 79 64 65 72 77 82 84 85 86 88 90 92 82 80 64 29 29 27 33 27 21 22 18 16 20 23 26 21 19 22 17 15 22 46 46 51 52 63 52 72 83 77 85 88
81 82 81 68 69 77 80 82 84 83 84 89 91 85 90 33 32 31 27 22 22 17 16 15 18 23 29 22 21 23 23 27 16 26 42 39 61 42 49 54 78 80 83 88 89
84 83 83 82 77 78 80 82 81 80 82 88 93 88 77 33 35 27 20 20 20 16 16 12 21 27 25 32 34 31 31 26 19 36 46 53 76 44 54 51 68 79 82 79 82
82 85 84 85 82 81 81 78 73 78 78 69 66 79 55 26 21 21 20 17 21 19 21 23 28 31 32 37 42 33 28 22 32 28 39 64 66 54 54 59 64 71 82 83 86
81 82 83 85 84 82 82 72 69 89 80 72 57 45 23 24 19 18 16 18 24 23 30 28 34 38 32 28 24 23 21 19 19 24 28 54 57 56 60 67 64 64 78 78 75
81 80 85 83 85 82 89 84 62 59 70 48 51 45 32 32 33 21 13 26 34 34 26 30 34 26 23 23 24 23 24 21 22 21 32 50 60 59 62 68 51 59 67 67 68
84 82 84 85 84 85 75 66 49 49 76 48 36 28 25 22 30 28 15 22 32 31 30 33 29 22 23 26 24 23 23 24 29 25 23 27 65 63 52 54 53 50 54 59 67
84 84 83 84 86 76 71 56 59 56 98 40 20 22 18 18 31 21 21 20 28 30 28 30 23 23 23 24 23 23 18 24 26 30 34 28 42 56 51 60 59 42 51 53 68
83 85 84 82 88 79 57 54 52 72 75 16 16 12 14 21 22 22 19 25 26 26 28 31 26 26 27 25 21 22 24 29 30 33 38 33 41 33 46 60 62 46 49 47 63
84 84 84 82 88 74 58 57 83 90 88 21 27 29 25 19 23 21 20 21 23 25 23 24 20 21 22 21 21 21 29 30 33 38 56 33 36 43 34 32 40 36 39 44 47
85 84 83 61 77 62 64 86 94 98 18 12 34 30 32 30 24 24 27 28 32 39 39 27 23 19 18 25 25 24 34 56 74 68 66 37 37 41 31 30 29 31 35 37 42
86 88 82 66 64 61 85 98 97 30 30 18 20 31 37 31 32 30 30 34 27 27 35 38 42 23 19 22 28 30 33 67 80 90 71 45 46 33 26 26 24 23 27 31 36
87 94 92 77 71 81 98 99 61 36 21 15 16 24 37 32 34 33 35 35 30 24 34 37 33 20 16 19 21 32 40 33 66 74 80 58 43 27 24 21 19 18 19 31 33
97 96 87 67 80 92 98 91 60 29 20 19 32 27 31 31 37 38 40 31 30 22 22 35 41 23 19 17 22 23 27 43 60 82 97 50 49 42 36 21 17 19 23 27 30
98 99 80 70 92 98 97 80 53 44 41 31 30 31 31 31 26 27 36 28 26 23 22 24 34 36 28 26 26 32 31 36 45 62 69 67 53 45 30 28 20 20 21 26 30
98 100 79 70 99 92 87 70 58 40 41 44 36 33 38 38 37 35 33 36 24 24 27 25 41 46 31 22 18 23 30 35 70 59 71 81 60 27 27 24 24 20 20 21 32
99 98 86 72 97 96 72 68 65 59 47 40 38 34 32 37 47 37 46 35 41 27 30 28 43 48 44 32 24 24 25 29 40 57 74 82 66 27 27 24 19 23 23 24 21
99 100 98 96 69 71 75 74 74 53 57 48 42 38 38 40 34 40 43 43 47 30 55 34 38 44 47 43 37 44 33 28 39 68 62 71 52 36 29 28 20 23 26 24 24
99 98 87 97 96 77 67 60 67 69 45 41 47 46 41 43 41 42 49 55 56 51 37 37 45 35 37 28 29 31 32 29 32 42 59 48 38 33 27 28 27 25 24 24 23
100 96 78 73 73 86 75 71 64 51 47 46 50 43 41 40 38 46 70 68 76 58 46 42 56 42 44 34 33 30 25 31 33 31 36 36 36 29 22 24 26 23 23 23 21
97 88 70 74 85 89 84 72 62 56 50 39 41 46 49 40 31 59 79 75 71 82 79 57 59 62 60 39 40 52 42 30 33 30 28 37 29 23 22 22 22 26 22 23 23
Wind_Speed
11 12 13 12 13 14 14 14 14 13 13 13 16 19 21 21 24 5 7 10 8 10 5 4 5 8 9 7 8 3 3 7 13 7 4 7 3 5 4 9 4 3 4 10 7
12 13 14 14 13 13 15 14 14 15 14 14 14 18 21 21 9 11 9 9 11 11 3 6 7 9 5 7 6 2 3 11 14 1 4 7 8 4 5 3 4 2 3 6 15
11 11 14 14 14 13 15 15 15 15 14 14 15 18 20 19 6 5 4 10 9 9 4 4 9 7 7 5 12 9 7 11 8 2 5 5 9 18 7 3 2 5 3 5 10
9 11 13 16 15 13 14 14 15 15 15 15 15 18 23 3 5 1 6 6 9 6 3 5 7 5 6 10 12 7 8 7 8 5 4 7 3 9 21 8 8 10 11 9 9
15 14 13 16 15 14 14 15 16 16 14 15 16 15 10 4 12 6 9 5 4 5 6 8 10 8 10 7 8 5 6 6 9 4 12 12 8 8 7 4 7 8 9 10 9
12 15 16 15 15 15 15 16 17 17 15 15 15 13 4 9 8 9 9 6 7 6 6 9 9 11 7 9 7 7 7 7 8 4 5 7 5 6 4 6 9 8 9 8 11
11 13 15 17 15 16 16 17 17 17 17 15 15 5 8 20 7 4 6 7 6 7 7 11 12 4 6 9 8 15 8 9 11 4 5 15 5 4 6 8 11 9 9 7 10
12 11 13 15 15 15 17 19 19 19 17 15 12 4 11 10 13 15 19 11 10 11 13 12 4 4 2 7 10 9 8 6 12 8 5 10 9 5 7 1 12 12 10 8 9
12 12 12 13 13 13 16 20 25 21 17 12 4 5 12 9 6 13 9 13 11 11 6 9 3 2 6 5 6 5 10 12 14 7 6 5 3 10 3 7 10 13 11 10 10
11 11 11 12 13 14 16 24 27 8 7 7 8 4 9 7 8 7 9 10 7 6 6 5 2 4 4 1 8 9 7 8 5 6 10 6 7 7 7 6 9 11 14 12 12
9 10 11 12 12 12 11 9 3 2 5 9 10 8 11 8 12 5 9 6 6 5 10 6 4 9 12 13 17 16 15 9 5 7 4 12 12 12 12 7 9 13 15 13 11
11 8 11 12 11 11 5 5 8 4 11 15 20 22 23 12 11 9 10 8 8 15 9 9 14 15 16 17 18 13 5 8 4 4 5 10 11 15 13 13 13 17 16 17 14
11 8 8 11 11 7 8 12 13 15 5 15 25 17 23 19 19 19 13 13 7 11 11 14 11 17 20 20 8 7 6 8 3 3 7 3 5 10 7 4 3 16 19 18 20
11 8 7 10 5 5 6 5 11 7 6 11 10 10 13 16 9 23 12 13 7 16 14 13 16 19 17 10 5 6 9 4 9 0 3 3 3 10 11 15 20 18 19 19 20
12 9 8 7 9 5 8 15 18 2 7 9 6 8 10 18 7 11 24 7 20 13 10 11 9 14 14 7 7 10 7 2 4 6 5 5 3 6 20 18 20 14 21 22 22
13 11 9 4 5 7 14 16 4 1 13 7 6 6 9 19 11 4 13 15 5 14 15 14 10 14 14 7 9 8 3 3 3 2 4 10 6 4 7 11 17 20 21 24 24
14 13 10 5 4 4 11 5 4 9 8 7 5 9 8 10 19 17 9 12 12 14 17 16 18 16 12 6 5 6 2 3 6 3 7 5 6 9 11 9 17 19 23 23 24
15 13 9 9 5 6 5 3 12 8 17 5 3 12 11 8 14 17 18 14 17 15 6 13 13 17 13 12 8 8 8 7 6 3 5 6 4 5 8 7 6 13 22 21 22
16 7 4 8 7 2 3 10 10 11 15 13 15 8 9 12 8 17 18 18 16 21 16 10 17 7 19 6 9 5 5 8 6 3 4 5 5 6 4 4 3 6 9 16 18
5 5 8 11 7 4 6 22 15 9 16 12 10 8 4 3 11 9 9 12 16 21 21 5 6 14 18 12 10 11 5 3 2 5 4 6 5 5 5 8 6 3 4 5 8
6 4 7 11 6 5 15 20 17 22 18 6 8 13 12 12 10 7 6 10 10 20 21 19 9 12 7 11 15 5 9 3 6 6 7 2 6 6 5 2 5 6 8 8 6
4 5 8 12 8 7 23 14 20 13 18 19 10 14 14 14 13 9 11 11 10 14 20 15 5 11 21 17 20 13 12 10 6 5 2 6 7 8 10 10 8 10 9 8 9
4 4 4 13 13 18 19 28 20 18 18 12 18 8 8 15 6 8 7 12 8 11 14 12 5 10 8 6 8 10 9 5 7 5 7 7 6 7 5 5 4 7 6 8 8
6 6 5 12 11 24 22 23 21 12 25 23 23 19 20 18 13 10 16 8 16 6 11 15 10 9 14 6 4 4 7 10 8 5 5 6 3 8 10 6 6 5 2 8 9
6 7 8 16 22 18 20 3 22 18 17 14 14 23 21 15 14 11 7 11 16 19 7 8 8 16 8 11 13 16 14 16 15 9 8 7 7 8 12 7 8 7 5 2 8
7 8 8 4 16 24 19 27 28 16 16 16 21 20 15 18 17 10 3 4 5 16 10 5 4 9 12 11 7 13 11 9 6 10 12 11 15 18 13 8 6 9 9 7 9
6 4 6 12 12 16 30 32 24 15 21 17 19 18 19 24 16 1 6 5 5 8 11 8 7 5 8 7 4 15 10 15 13 12 9 8 10 7 9 10 11 11 11 13 10
Wind_Direction
341 344 341 338 337 329 326 327 323 319 319 322 323 321 319 320 318 274 231 223 189 163 180 258 204 224 246 252 267 286 320 276 275 313 335 68 94 4 125 125 136 129 207 158 165
336 341 341 339 336 332 324 326 322 318 318 318 321 319 317 326 305 261 248 150 145 155 200 228 234 228 239 257 261 182 176 250 260 311 17 5 29 142 73 28 50 153 202 163 135
333 336 332 331 327 334 329 328 319 317 317 315 320 317 317 326 295 266 140 151 158 166 258 300 280 268 255 250 260 255 215 260 285 75 69 39 59 51 49 26 64 105 118 143 118
325 326 325 322 322 328 325 323 320 316 317 315 317 321 316 265 288 265 164 175 159 170 242 285 283 273 266 266 267 262 249 277 289 31 36 59 101 65 67 341 56 61 99 99 97
310 316 316 316 318 318 322 319 316 313 314 313 316 325 335 300 254 176 161 175 170 158 211 232 258 249 252 278 310 288 247 289 315 337 96 101 64 121 88 348 77 92 97 106 107
304 306 309 312 317 316 317 315 311 311 308 309 311 326 240 261 257 171 172 158 228 194 210 234 247 255 277 297 304 289 301 300 296 59 67 88 95 77 230 181 145 139 114 131 137
309 300 302 306 311 311 308 306 306 305 303 304 306 306 249 241 271 211 264 198 203 207 224 238 242 284 324 321 309 317 313 306 280 180 149 131 23 65 152 209 161 133 141 149 132
298 304 298 301 304 304 303 302 300 298 295 294 288 277 251 256 239 255 263 263 211 224 226 251 300 335 341 289 307 304 306 280 274 144 186 101 215 240 163 133 153 156 157 158 158
291 300 304 299 300 301 304 303 295 290 277 258 266 206 263 277 219 241 235 227 222 237 258 253 315 236 309 296 317 259 258 259 276 128 121 100 201 261 144 133 152 165 156 149 137
286 295 303 304 302 306 310 301 283 282 245 207 254 274 264 251 236 204 219 243 212 204 252 235 261 220 281 155 243 256 261 270 168 194 148 123 203 230 254 168 156 179 155 153 170
280 291 298 305 305 312 331 331 19 85 209 207 203 235 292 300 297 171 196 212 229 206 206 223 187 228 235 231 245 263 271 291 280 203 166 170 189 208 222 249 135 175 148 160 170
275 289 293 301 301 308 301 266 255 69 289 238 246 239 252 269 283 275 156 180 208 230 182 235 225 228 245 252 255 269 276 304 88 228 152 155 191 213 213 219 170 166 160 168 158
264 271 289 299 310 298 226 253 300 333 279 274 236 227 232 232 241 254 170 201 201 224 218 214 231 225 237 251 266 273 253 266 233 261 317 273 141 203 235 140 243 180 170 175 169
251 250 268 292 315 258 251 316 313 223 285 268 230 235 218 216 233 227 235 189 222 219 230 241 235 247 262 216 241 264 261 284 336 205 248 122 268 223 181 161 206 186 175 176 175
246 231 234 229 308 293 355 331 318 92 296 257 196 173 173 174 156 205 216 230 210 216 179 230 222 238 253 223 245 249 239 309 332 332 15 293 109 253 144 169 203 212 185 186 178
237 228 207 266 250 272 306 301 289 147 243 265 153 163 133 194 231 5 169 212 225 221 248 253 230 244 241 228 226 269 198 218 274 268 316 262 182 238 207 193 181 175 190 187 184
234 225 197 231 244 303 335 318 162 215 233 234 183 161 187 173 214 234 202 202 203 204 233 256 248 258 272 225 224 253 52 347 356 353 229 320 289 219 222 204 183 192 188 189 182
220 217 215 228 266 310 322 246 226 196 243 347 10 174 182 182 204 212 225 228 221 224 193 229 250 233 240 208 190 210 155 155 196 237 297 328 279 282 206 217 242 201 193 184 185
217 220 205 230 234 222 240 222 221 204 190 243 308 307 196 187 193 196 213 226 231 213 216 205 238 253 227 231 163 258 185 183 120 3 25 265 294 324 273 215 116 153 166 184 184
196 205 206 212 172 211 220 235 228 249 289 298 308 293 328 242 191 184 189 196 223 214 211 253 216 240 251 215 207 197 193 227 75 133 187 261 246 222 146 225 141 147 175 153 163
185 209 179 192 116 223 217 231 232 249 269 308 280 272 298 327 332 275 257 225 218 203 204 217 242 268 294 238 189 184 224 217 162 152 187 234 273 210 155 319 218 190 156 156 176
177 209 195 163 179 211 225 204 226 248 234 252 294 268 273 301 309 317 245 266 236 211 206 199 167 239 254 275 197 186 193 184 144 247 151 143 274 180 173 211 224 178 181 161 161
188 142 234 168 200 217 234 238 250 267 239 264 237 238 280 277 293 291 309 276 263 242 203 178 205 248 307 273 254 197 222 202 193 136 193 142 241 259 262 273 209 183 179 170 166
149 167 176 206 229 214 218 237 237 241 238 257 267 274 287 281 259 276 295 303 344 218 123 178 175 199 232 223 195 249 222 224 189 147 176 209 253 294 262 229 218 174 176 210 189
166 211 185 199 210 219 212 222 225 230 220 208 255 249 248 266 282 273 304 353 330 303 125 138 215 218 250 213 241 219 226 231 221 202 167 229 234 242 248 210 174 178 207 227 167
167 184 186 235 201 207 224 221 232 231 211 207 231 251 251 250 253 266 111 81 250 307 325 169 233 201 243 244 265 262 259 274 267 224 215 215 236 235 239 190 189 199 211 193 178
181 238 176 190 192 198 215 227 230 217 260 241 222 233 252 246 257 214 130 91 237 275 307 286 148 137 230 219 272 274 211 217 254 256 202 217 227 228 223 192 206 212 215 199 182